Andalusia, AL

10:03 PM CDT on April 26, 2017 (GMT -0500)
Andalusia

Weather History for K79J - July, 2013

Change the Weather History Date:

Thursday, July 18, 2013

  Actual Average (KCEW) Record (KCEW)
Temperature  
Mean Temperature 80 °F -  
Max Temperature 90 °F 91 °F 102 °F (2000)
Min Temperature 71 °F 71 °F 64 °F (2014)
Cooling Degree Days 16    
Growing Degree Days 30 (Base 50)    
Moisture  
Dew Point 71 °F    
Average Humidity 75    
Maximum Humidity 90    
Minimum Humidity 53    
Precipitation  
Precipitation 0.00 in - - ()
Sea Level Pressure  
Sea Level Pressure 30.10 in    
Wind  
Wind Speed 3 mph (East)    
Max Wind Speed 9 mph    
Max Gust Speed 18 mph    
Visibility 10 miles    
Events Thunderstorm    
Averages and records for this station are not official NWS values.
T = Trace of Precipitation, MM = Missing Value Source: NWS Daily Summary

Daily Weather History Graph

Daily Weather History Graph

Search for Another Location

Airport or City:

Trip Planner

Search our weather history database for the weather conditions in past years. The results will help you decide how hot, cold, wet, or windy it might be!

Date:

Astronomy

Jul. 18, 2013 Rise Set
Actual Time 5:53 AM CDT 7:49 PM CDT
Civil Twilight 5:26 AM CDT 8:16 PM CDT
Nautical Twilight 4:53 AM CDT 8:49 PM CDT
Astronomical Twilight 4:18 AM CDT 9:24 PM CDT
Moon 3:47 PM CDT (7/18) 1:39 AM CDT (7/18)
Length of Visible Light 14h 50m
Length of Day
13h 56m
Waxing Gibbous, 77% of the Moon is Illuminated
Jul 18
Waxing Gibbous
Jul 22
Full
Jul 29
Last Quarter
Aug 6
New
Aug 14
First Quarter

Hourly Weather History & Observations

Time (CDT) Temp. Heat Index Dew Point Humidity Pressure Visibility Wind Dir Wind Speed Gust Speed Precip Events Conditions
12:56 AM 73.9 °F - 68.0 °F 82% 30.14 in 10.0 mi East 5.8 mph - N/A   Clear
1:56 AM 72.0 °F - 68.0 °F 87% 30.10 in 10.0 mi SSE 4.6 mph - N/A   Clear
2:56 AM 72.0 °F - 68.0 °F 87% 30.10 in 10.0 mi NNE 4.6 mph - N/A   Clear
3:56 AM 72.0 °F - 68.0 °F 87% 30.11 in 10.0 mi NE 3.5 mph - N/A   Clear
4:56 AM 72.0 °F - 68.0 °F 87% 30.11 in 10.0 mi Calm Calm - N/A   Partly Cloudy
5:56 AM 71.1 °F - 68.0 °F 90% 30.11 in 10.0 mi Calm Calm - N/A   Clear
6:56 AM 72.0 °F - 68.0 °F 87% 30.12 in 10.0 mi East 3.5 mph - N/A   Clear
7:56 AM 75.9 °F - 69.1 °F 79% 30.13 in 10.0 mi NE 4.6 mph - N/A   Clear
8:56 AM 80.1 °F 83.2 °F 70.0 °F 71% 30.14 in 10.0 mi ESE 5.8 mph - N/A   Clear
9:56 AM 82.0 °F 86.3 °F 71.1 °F 69% 30.14 in 10.0 mi Variable 3.5 mph - N/A   Clear
10:56 AM 84.9 °F 90.1 °F 71.1 °F 63% 30.14 in 10.0 mi Calm Calm - N/A   Clear
11:56 AM 87.1 °F 94.5 °F 73.0 °F 63% 30.14 in 10.0 mi Calm Calm - N/A Thunderstorm Thunderstorm
12:15 PM 87.8 °F 93.8 °F 71.6 °F 58% 30.14 in 10.0 mi East 3.5 mph - N/A   Partly Cloudy
12:56 PM 90.0 °F 96.9 °F 72.0 °F 55% 30.11 in 10.0 mi East 3.5 mph - N/A   Mostly Cloudy
1:56 PM 90.0 °F 96.4 °F 71.1 °F 54% 30.07 in 10.0 mi ENE 3.5 mph - N/A   Partly Cloudy
2:56 PM 89.1 °F 94.1 °F 70.0 °F 53% 30.05 in 10.0 mi SE 4.6 mph - N/A   Mostly Cloudy
3:56 PM 90.0 °F 96.9 °F 72.0 °F 55% 30.04 in 10.0 mi Calm Calm - N/A   Scattered Clouds
4:56 PM 82.9 °F 87.5 °F 71.1 °F 67% 30.04 in 10.0 mi SW 9.2 mph 18.4 mph N/A   Mostly Cloudy
5:56 PM 82.9 °F 87.5 °F 71.1 °F 67% 30.02 in 10.0 mi Calm Calm - N/A   Clear
6:56 PM 81.0 °F 85.2 °F 72.0 °F 74% 30.04 in 10.0 mi NW 3.5 mph - N/A   Clear
7:56 PM 78.1 °F - 73.0 °F 84% 30.05 in 10.0 mi Calm Calm - N/A   Clear
8:18 PM 78.8 °F - 73.4 °F 83% 30.07 in 10.0 mi Calm Calm - N/A   Scattered Clouds
8:56 PM 78.1 °F - 73.0 °F 84% 30.07 in 10.0 mi Calm Calm - N/A   Clear
9:56 PM 78.1 °F - 73.0 °F 84% 30.09 in 10.0 mi Calm Calm - N/A   Clear
10:56 PM 77.0 °F - 73.0 °F 88% 30.10 in 10.0 mi Calm Calm - N/A   Clear
11:56 PM 75.9 °F - 72.0 °F 87% 30.10 in 10.0 mi Calm Calm - N/A   Mostly Cloudy